UAE1J OMDB-EGCC

Flight info

Callsign UAE1J
Flight time N/A
Altitude 36000
Route ANVIX R401 GIDIS G783 RIGIL M628 PEKEM DCT MEDPO DCT ITRUX Y511 PMA Z712 WEJ L677 DARAX/N0498F380 L677 CVO L617 TANSA UL613 KOR DCT DIMIS DCT VAKSU DCT SPL DCT ZDA DCT PEVAL DCT LAMPO/N0482F400 DCT GUNGO DCT SAFFA DCT ELMUR DCT RIPUS L613 HOC DCT LUL DCT RLP DCT ROTSI DCT KOTUN DCT AMAXA DCT VESAN DCT RATUK DCT SOVAT L613 SANDY UN57 WELIN T420 ELVOS
Aircraft A388/J-SADE2E3FGHIJ3J4J5M1RWXY/LB1D1

Departure

Time N/A
Airport Dubai International Airport (OMDB)

Arrival

Time 2026-05-04 02:23
Airport Manchester Airport (EGCC)
Time Latitude Longitude Altitude Speed Heading
2026-05-03 20:15 24.07951 40.80977 38014 ft 446 kts 282°
2026-05-03 20:15 24.09760 40.74507 38016 ft 447 kts 282°
2026-05-03 20:16 24.11576 40.68001 38015 ft 447 kts 282°
2026-05-03 20:16 24.13379 40.61531 38013 ft 447 kts 282°
2026-05-03 20:17 24.15191 40.55016 38011 ft 447 kts 283°
2026-05-03 20:17 24.17525 40.48667 38007 ft 453 kts 291°
2026-05-03 20:18 24.20473 40.42555 38007 ft 454 kts 292°
2026-05-03 20:18 24.23403 40.36428 38002 ft 453 kts 292°
2026-05-03 20:19 24.26310 40.30346 37984 ft 453 kts 292°
2026-05-03 20:19 24.29234 40.24232 37990 ft 453 kts 291°
2026-05-03 20:20 24.32156 40.18113 37991 ft 452 kts 291°
2026-05-03 20:20 24.35059 40.12027 37990 ft 452 kts 291°
2026-05-03 20:21 24.37969 40.05917 38003 ft 452 kts 291°
2026-05-03 20:21 24.40878 39.99802 38005 ft 451 kts 291°
2026-05-03 20:22 24.43780 39.93694 38007 ft 450 kts 291°
2026-05-03 20:22 24.46652 39.87640 38011 ft 450 kts 291°
2026-05-03 20:23 24.49538 39.81550 38014 ft 450 kts 291°
2026-05-03 20:23 24.52489 39.75492 38028 ft 453 kts 295°
2026-05-03 20:24 24.56375 39.69952 38018 ft 464 kts 306°
2026-05-03 20:24 24.61331 39.65276 37988 ft 476 kts 316°
2026-05-03 20:25 24.65798 39.61739 37984 ft 475 kts 315°
2026-05-03 20:25 24.71114 39.57480 37986 ft 474 kts 315°
2026-05-03 20:26 24.76455 39.53202 37979 ft 475 kts 315°
2026-05-03 20:26 24.81798 39.48924 37979 ft 475 kts 315°
2026-05-03 20:27 24.87151 39.44635 37993 ft 475 kts 315°
2026-05-03 20:27 24.92490 39.40350 37991 ft 475 kts 315°
2026-05-03 20:28 24.97838 39.36053 37985 ft 475 kts 315°
2026-05-03 20:28 25.03185 39.31754 38007 ft 475 kts 315°
2026-05-03 20:29 25.08487 39.27486 37993 ft 474 kts 315°
2026-05-03 20:29 25.13812 39.23194 37993 ft 474 kts 315°
2026-05-03 20:30 25.19018 39.18794 37999 ft 466 kts 309°
2026-05-03 20:30 25.23462 39.13723 37973 ft 454 kts 301°
2026-05-03 20:31 25.27072 39.08095 37979 ft 446 kts 294°
2026-05-03 20:31 25.30421 39.02382 37963 ft 445 kts 295°
2026-05-03 20:32 25.33753 38.96715 37953 ft 444 kts 295°
2026-05-03 20:32 25.37101 38.90988 37945 ft 443 kts 295°
2026-05-03 20:33 25.40452 38.85238 37965 ft 444 kts 294°
2026-05-03 20:33 25.43793 38.79500 37955 ft 444 kts 294°
2026-05-03 20:34 25.47122 38.73778 37938 ft 444 kts 294°
2026-05-03 20:34 25.50468 38.68020 37930 ft 444 kts 294°
2026-05-03 20:35 25.53812 38.62260 37934 ft 444 kts 294°
2026-05-03 20:35 25.57116 38.56560 37935 ft 444 kts 294°
2026-05-03 20:36 25.60450 38.50802 37933 ft 443 kts 294°
2026-05-03 20:36 25.63758 38.45082 37922 ft 443 kts 294°
2026-05-03 20:37 25.67081 38.39328 37921 ft 442 kts 294°
2026-05-03 20:37 25.70398 38.33580 37934 ft 442 kts 293°
2026-05-03 20:38 25.73689 38.27866 37920 ft 442 kts 293°
2026-05-03 20:38 25.76996 38.22119 37919 ft 441 kts 293°
2026-05-03 20:39 25.80305 38.16363 37938 ft 442 kts 293°
2026-05-03 20:39 25.83606 38.10612 37925 ft 441 kts 293°
2026-05-03 20:40 25.86897 38.04872 37919 ft 440 kts 293°
2026-05-03 20:40 25.90180 37.99137 37933 ft 439 kts 293°
2026-05-03 20:41 25.93426 37.93459 37903 ft 439 kts 293°
2026-05-03 20:41 25.96701 37.87730 37941 ft 439 kts 292°
2026-05-03 20:42 25.99423 37.81764 37945 ft 428 kts 283°
2026-05-03 20:42 26.01162 37.75504 37966 ft 420 kts 275°
2026-05-03 20:43 26.02086 37.69159 37964 ft 419 kts 272°
2026-05-03 20:43 26.02964 37.62743 37979 ft 421 kts 272°
2026-05-03 20:44 26.03844 37.56314 37991 ft 421 kts 272°
2026-05-03 20:44 26.04718 37.49865 37996 ft 422 kts 272°
2026-05-03 20:45 26.05586 37.43392 37983 ft 423 kts 272°
2026-05-03 20:45 26.06452 37.36928 37964 ft 422 kts 272°
2026-05-03 20:46 26.07312 37.30478 37955 ft 421 kts 272°
2026-05-03 20:46 26.08167 37.24042 37945 ft 420 kts 272°
2026-05-03 20:47 26.09011 37.17664 37921 ft 419 kts 271°
2026-05-03 20:47 26.09856 37.11256 37893 ft 417 kts 271°
2026-05-03 20:48 26.10695 37.04869 37914 ft 417 kts 271°
2026-05-03 20:48 26.11532 36.98476 37919 ft 417 kts 271°
2026-05-03 20:49 26.12365 36.92087 37897 ft 417 kts 271°
2026-05-03 20:49 26.13196 36.85693 37861 ft 417 kts 271°
2026-05-03 20:50 26.14019 36.79342 37879 ft 418 kts 271°
2026-05-03 20:50 26.14847 36.72934 37899 ft 419 kts 271°
2026-05-03 20:51 26.15673 36.66508 37881 ft 419 kts 271°
2026-05-03 20:51 26.16497 36.60079 37897 ft 419 kts 271°
2026-05-03 20:52 26.17499 36.53666 37888 ft 426 kts 278°
2026-05-03 20:52 26.19839 36.47590 37900 ft 443 kts 292°
2026-05-03 20:53 26.23751 36.42099 37893 ft 462 kts 304°
2026-05-03 20:53 26.28229 36.36982 37883 ft 461 kts 303°
2026-05-03 20:54 26.32684 36.31838 37897 ft 461 kts 303°
2026-05-03 20:54 26.39349 36.24139 37905 ft 459 kts 303°
2026-05-03 20:55 26.43752 36.19048 37902 ft 458 kts 303°
2026-05-03 20:55 26.48172 36.13930 37880 ft 457 kts 303°
2026-05-03 20:56 26.52588 36.08811 37876 ft 457 kts 303°
2026-05-03 20:56 26.56993 36.03698 37878 ft 457 kts 303°
2026-05-03 20:57 26.61397 35.98581 37879 ft 457 kts 303°
2026-05-03 20:57 26.65806 35.93452 37934 ft 457 kts 303°
2026-05-03 20:58 26.70198 35.88336 37902 ft 458 kts 303°
2026-05-03 20:58 26.74578 35.83230 37903 ft 458 kts 303°
2026-05-03 20:59 26.78991 35.78079 37903 ft 457 kts 303°
2026-05-03 20:59 26.83390 35.72937 37908 ft 457 kts 303°
2026-05-03 21:00 26.86333 35.69495 37916 ft 456 kts 303°
2026-05-03 21:00 26.92168 35.62663 37909 ft 456 kts 303°
2026-05-03 21:01 26.96545 35.57528 37903 ft 455 kts 303°
2026-05-03 21:01 27.00918 35.52394 37906 ft 455 kts 303°
2026-05-03 21:02 27.05264 35.47284 37936 ft 456 kts 302°
2026-05-03 21:02 27.09636 35.42139 37933 ft 454 kts 302°
2026-05-03 21:03 27.13987 35.37013 37904 ft 453 kts 302°
2026-05-03 21:03 27.18321 35.31899 37906 ft 451 kts 302°
2026-05-03 21:04 27.22648 35.26786 37907 ft 450 kts 302°
2026-05-03 21:04 27.26963 35.21682 37911 ft 450 kts 302°
2026-05-03 21:05 27.31279 35.16571 37909 ft 450 kts 302°
2026-05-03 21:05 27.35514 35.11550 37909 ft 450 kts 302°
2026-05-03 21:06 27.39819 35.06440 37909 ft 450 kts 302°
2026-05-03 21:06 27.44133 35.01311 37922 ft 451 kts 302°
2026-05-03 21:07 27.48444 34.96183 37925 ft 451 kts 302°
2026-05-03 21:07 27.52801 34.91182 37915 ft 456 kts 305°
2026-05-03 21:08 27.57436 34.86315 37910 ft 455 kts 305°
2026-05-03 21:08 27.62051 34.81438 37898 ft 454 kts 305°
2026-05-03 21:09 27.66658 34.76561 37896 ft 454 kts 305°
2026-05-03 21:09 27.71255 34.71691 37895 ft 454 kts 305°
2026-05-03 21:10 27.75857 34.66811 37899 ft 453 kts 305°
2026-05-03 21:10 27.80450 34.61934 37921 ft 453 kts 305°
2026-05-03 21:11 27.85036 34.57058 37912 ft 451 kts 305°
2026-05-03 21:11 27.89577 34.52225 37907 ft 450 kts 305°
2026-05-03 21:12 27.94131 34.47371 37920 ft 449 kts 305°
2026-05-03 21:12 27.98679 34.42512 37905 ft 447 kts 303°
2026-05-03 21:13 28.02717 34.37303 37901 ft 437 kts 298°
2026-05-03 21:13 28.06570 34.31970 37904 ft 438 kts 298°
2026-05-03 21:14 28.10434 34.26633 37913 ft 438 kts 298°
2026-05-03 21:14 28.14275 34.21315 37984 ft 440 kts 298°
2026-05-03 21:15 28.18152 34.15936 37977 ft 439 kts 298°
2026-05-03 21:15 28.22017 34.10564 37985 ft 439 kts 298°
2026-05-03 21:16 28.25850 34.05232 37989 ft 439 kts 298°
2026-05-03 21:16 28.29724 33.99830 38018 ft 442 kts 298°
2026-05-03 21:17 28.32955 33.95339 38067 ft 442 kts 299°
2026-05-03 21:17 28.37450 33.89045 38024 ft 443 kts 298°
2026-05-03 21:18 28.41331 33.83620 38023 ft 442 kts 298°
2026-05-03 21:18 28.45199 33.78212 38008 ft 439 kts 298°
2026-05-03 21:19 28.48394 33.73745 37957 ft 435 kts 299°
2026-05-03 21:19 28.52192 33.68422 37956 ft 432 kts 298°
2026-05-03 21:20 28.55970 33.63105 37965 ft 432 kts 298°
2026-05-03 21:20 28.59762 33.57782 37941 ft 433 kts 298°
2026-05-03 21:21 28.63531 33.52491 37960 ft 433 kts 298°
2026-05-03 21:21 28.67318 33.47148 37959 ft 434 kts 298°
2026-05-03 21:22 28.71109 33.41793 37987 ft 435 kts 298°
2026-05-03 21:22 28.74913 33.36417 37991 ft 436 kts 298°
2026-05-03 21:23 28.78716 33.31038 38002 ft 436 kts 298°
2026-05-03 21:23 28.82504 33.25670 38006 ft 437 kts 298°
2026-05-03 21:24 28.86321 33.20254 38023 ft 438 kts 298°
2026-05-03 21:24 28.90134 33.14838 38042 ft 438 kts 298°
2026-05-03 21:25 28.93956 33.09400 38037 ft 439 kts 298°
2026-05-03 21:25 28.97769 33.03971 38037 ft 439 kts 298°
2026-05-03 21:26 29.01591 32.98521 38039 ft 438 kts 298°
2026-05-03 21:26 29.05371 32.93121 38039 ft 438 kts 298°
2026-05-03 21:27 29.09179 32.87675 38043 ft 437 kts 299°
2026-05-03 21:27 29.12979 32.82235 38028 ft 437 kts 299°
2026-05-03 21:28 29.16751 32.76826 38040 ft 436 kts 299°
2026-05-03 21:28 29.20535 32.71394 38051 ft 436 kts 299°
2026-05-03 21:29 29.24320 32.65952 38036 ft 436 kts 299°
2026-05-03 21:29 29.28104 32.60505 38067 ft 436 kts 299°
2026-05-03 21:30 29.31839 32.55091 38061 ft 435 kts 298°
2026-05-03 21:30 29.35575 32.49638 38075 ft 435 kts 298°
2026-05-03 21:31 29.39316 32.44178 38069 ft 434 kts 298°
2026-05-03 21:31 29.43052 32.38724 38062 ft 434 kts 298°
2026-05-03 21:32 29.46770 32.33289 38109 ft 433 kts 298°
2026-05-03 21:32 29.50482 32.27854 38085 ft 431 kts 298°
2026-05-03 21:33 29.54133 32.22501 38057 ft 428 kts 299°
2026-05-03 21:33 29.57795 32.17125 38055 ft 426 kts 298°
2026-05-03 21:34 29.61446 32.11757 38055 ft 426 kts 298°
2026-05-03 21:34 29.65082 32.06405 38097 ft 427 kts 298°
2026-05-03 21:35 29.68737 32.01018 38082 ft 427 kts 298°
2026-05-03 21:35 29.72379 31.95644 38084 ft 427 kts 298°
2026-05-03 21:36 29.76033 31.90246 38096 ft 428 kts 298°
2026-05-03 21:36 29.79675 31.84832 38093 ft 426 kts 297°
2026-05-03 21:37 29.83181 31.79346 38101 ft 425 kts 297°
2026-05-03 21:37 29.86676 31.73855 38081 ft 424 kts 297°
2026-05-03 21:38 29.90157 31.68413 38077 ft 424 kts 297°
2026-05-03 21:38 29.93661 31.62957 38070 ft 423 kts 297°
2026-05-03 21:39 29.97188 31.57517 38069 ft 423 kts 297°
2026-05-03 21:39 30.00708 31.52073 38101 ft 423 kts 297°
2026-05-03 21:40 30.04227 31.46619 38078 ft 424 kts 297°
2026-05-03 21:40 30.07758 31.41160 38059 ft 425 kts 299°
2026-05-03 21:41 30.11812 31.36069 38078 ft 437 kts 307°
2026-05-03 21:41 30.16285 31.31305 38094 ft 437 kts 307°
2026-05-03 21:42 30.20733 31.26513 38076 ft 437 kts 307°
2026-05-03 21:42 30.25147 31.21760 38072 ft 436 kts 307°
2026-05-03 21:43 30.29585 31.16981 38064 ft 435 kts 307°
2026-05-03 21:43 30.34005 31.12215 38056 ft 434 kts 307°
2026-05-03 21:44 30.38415 31.07454 38044 ft 433 kts 307°
2026-05-03 21:44 30.42791 31.02722 38045 ft 432 kts 307°
2026-05-03 21:45 30.47189 30.97961 38043 ft 432 kts 307°
2026-05-03 21:45 30.51594 30.93184 38050 ft 434 kts 307°
2026-05-03 21:46 30.56000 30.88405 38052 ft 433 kts 307°
2026-05-03 21:46 30.60399 30.83626 38050 ft 433 kts 307°
2026-05-03 21:47 30.64757 30.78883 38052 ft 433 kts 307°
2026-05-03 21:47 30.69154 30.74093 38050 ft 433 kts 307°
2026-05-03 21:48 30.73524 30.69324 38049 ft 433 kts 307°
2026-05-03 21:48 30.77919 30.64523 38053 ft 433 kts 307°
2026-05-03 21:49 30.82310 30.59720 38056 ft 433 kts 307°
2026-05-03 21:49 30.86682 30.54931 38064 ft 434 kts 307°
2026-05-03 21:50 30.91079 30.50110 38059 ft 434 kts 307°
2026-05-03 21:50 30.95474 30.45284 38060 ft 434 kts 307°
2026-05-03 21:51 30.99872 30.40447 38059 ft 434 kts 307°
2026-05-03 21:51 31.04264 30.35608 38051 ft 434 kts 306°
2026-05-03 21:52 31.08029 30.30286 38056 ft 419 kts 295°
2026-05-03 21:52 31.10687 30.24387 38058 ft 409 kts 285°
2026-05-03 21:53 31.12462 30.18132 38057 ft 406 kts 282°
2026-05-03 21:53 31.14192 30.11843 38059 ft 406 kts 282°
2026-05-03 21:54 31.15912 30.05552 38061 ft 407 kts 282°
2026-05-03 21:54 31.17719 29.99277 38076 ft 410 kts 286°
2026-05-03 21:55 31.20204 29.93271 38075 ft 417 kts 292°
2026-05-03 21:55 31.23444 29.87590 38078 ft 423 kts 298°
2026-05-03 21:56 31.26918 29.82042 38080 ft 423 kts 298°
2026-05-03 21:56 31.30387 29.76462 38061 ft 424 kts 298°
2026-05-03 21:57 31.33849 29.70899 38057 ft 423 kts 298°
2026-05-03 21:57 31.37305 29.65339 38052 ft 423 kts 298°
2026-05-03 21:58 31.40742 29.59803 38050 ft 423 kts 298°
2026-05-03 21:58 31.44203 29.54221 38052 ft 424 kts 298°
2026-05-03 21:59 31.47664 29.48629 38076 ft 423 kts 299°
2026-05-03 21:59 31.51110 29.43056 38073 ft 422 kts 299°
2026-05-03 22:00 31.54524 29.37525 38068 ft 421 kts 299°
2026-05-03 22:00 31.57948 29.31970 38061 ft 420 kts 299°
2026-05-03 22:01 31.61364 29.26412 38053 ft 419 kts 299°
2026-05-03 22:01 31.64767 29.20856 38077 ft 418 kts 299°
2026-05-03 22:02 31.68157 29.15315 38126 ft 417 kts 299°
2026-05-03 22:02 31.71615 29.09821 38053 ft 421 kts 303°
2026-05-03 22:03 31.75657 29.04845 38044 ft 428 kts 310°
2026-05-03 22:03 31.80260 29.00353 38057 ft 430 kts 312°
2026-05-03 22:04 31.84885 28.95881 38053 ft 430 kts 312°
2026-05-03 22:04 31.89512 28.91409 38064 ft 430 kts 312°
2026-05-03 22:05 31.94103 28.86974 38064 ft 430 kts 312°
2026-05-03 22:05 31.98729 28.82500 38058 ft 430 kts 312°
2026-05-03 22:06 32.03353 28.78020 38057 ft 431 kts 312°
2026-05-03 22:06 32.07984 28.73529 38057 ft 431 kts 312°
2026-05-03 22:07 32.12619 28.69029 38057 ft 431 kts 312°
2026-05-03 22:07 32.17215 28.64559 38061 ft 431 kts 312°
2026-05-03 22:08 32.21847 28.60048 38056 ft 431 kts 312°
2026-05-03 22:08 32.26473 28.55538 38057 ft 431 kts 312°
2026-05-03 22:09 32.31098 28.51023 38057 ft 431 kts 312°
2026-05-03 22:10 32.37975 28.44295 38038 ft 433 kts 312°
2026-05-03 22:10 32.42614 28.39751 38049 ft 433 kts 312°
2026-05-03 22:11 32.47253 28.35199 38070 ft 433 kts 313°
2026-05-03 22:11 32.51895 28.30639 38075 ft 433 kts 313°
2026-05-03 22:12 32.56531 28.26077 38073 ft 433 kts 312°
2026-05-03 22:12 32.61169 28.21509 38047 ft 433 kts 312°
2026-05-03 22:13 32.65016 28.17713 38051 ft 432 kts 312°
2026-05-03 22:13 32.69640 28.13147 38047 ft 432 kts 312°
2026-05-03 22:14 32.74264 28.08573 38042 ft 432 kts 312°
2026-05-03 22:14 32.78879 28.04001 38051 ft 432 kts 312°
2026-05-03 22:15 32.83463 27.99455 38048 ft 431 kts 312°
2026-05-03 22:15 32.88066 27.94883 38046 ft 431 kts 312°
2026-05-03 22:16 32.92664 27.90309 38050 ft 430 kts 312°
2026-05-03 22:16 32.97269 27.85721 38010 ft 432 kts 312°
2026-05-03 22:17 33.01891 27.81111 38022 ft 433 kts 312°
2026-05-03 22:17 33.06515 27.76492 38029 ft 434 kts 312°
2026-05-03 22:18 33.11127 27.71879 38031 ft 435 kts 312°
2026-05-03 22:18 33.15769 27.67229 38042 ft 436 kts 312°
2026-05-03 22:19 33.20419 27.62565 38043 ft 437 kts 312°
2026-05-03 22:19 33.25073 27.57890 38049 ft 437 kts 312°
2026-05-03 22:20 33.29732 27.53202 38041 ft 438 kts 313°
2026-05-03 22:20 33.34400 27.48500 38042 ft 438 kts 313°
2026-05-03 22:21 33.39060 27.43799 38056 ft 438 kts 313°
2026-05-03 22:21 33.43715 27.39096 38048 ft 437 kts 313°
2026-05-03 22:22 33.48330 27.34427 38043 ft 436 kts 313°
2026-05-03 22:22 33.52959 27.29736 38038 ft 435 kts 313°
2026-05-03 22:23 33.57585 27.25041 38037 ft 435 kts 313°
2026-05-03 22:23 33.62207 27.20343 38029 ft 435 kts 313°
2026-05-03 22:24 33.66827 27.15639 38025 ft 436 kts 314°
2026-05-03 22:24 33.71426 27.10951 38026 ft 436 kts 314°
2026-05-03 22:25 33.76053 27.06229 38029 ft 437 kts 314°
2026-05-03 22:25 33.80688 27.01491 38034 ft 437 kts 313°
2026-05-03 22:26 33.85329 26.96740 38038 ft 438 kts 313°
2026-05-03 22:26 33.89921 26.92031 38057 ft 439 kts 314°
2026-05-03 22:27 33.94584 26.87245 38039 ft 440 kts 314°
2026-05-03 22:27 33.99245 26.82458 38045 ft 440 kts 315°
2026-05-03 22:28 34.04023 26.77808 38046 ft 442 kts 317°
2026-05-03 22:28 34.08900 26.73380 38048 ft 442 kts 317°
2026-05-03 22:29 34.13782 26.68884 38047 ft 441 kts 317°
2026-05-03 22:29 34.18640 26.64369 38046 ft 441 kts 317°
2026-05-03 22:30 34.23503 26.59836 38055 ft 441 kts 317°
2026-05-03 22:30 34.28359 26.55304 38071 ft 440 kts 318°
2026-05-03 22:31 34.33154 26.50822 38069 ft 439 kts 318°
2026-05-03 22:31 34.37941 26.46342 38046 ft 437 kts 317°
2026-05-03 22:32 34.42749 26.41835 38042 ft 436 kts 317°
2026-05-03 22:32 34.47550 26.37327 38040 ft 435 kts 317°
2026-05-03 22:33 34.52341 26.32821 38021 ft 436 kts 317°
2026-05-03 22:33 34.57141 26.28301 38023 ft 437 kts 317°
2026-05-03 22:34 34.61916 26.23797 38043 ft 438 kts 318°
2026-05-03 22:34 34.66730 26.19251 38045 ft 439 kts 318°
2026-05-03 22:35 34.71532 26.14709 38055 ft 440 kts 318°
2026-05-03 22:35 34.76367 26.10129 38058 ft 440 kts 318°
2026-05-03 22:36 34.81180 26.05561 38015 ft 443 kts 318°
2026-05-03 22:36 34.86047 26.00936 38029 ft 445 kts 318°
2026-05-03 22:37 34.90940 25.96280 38045 ft 446 kts 317°
2026-05-03 22:37 34.95836 25.91613 38062 ft 447 kts 318°
2026-05-03 22:38 35.00739 25.86933 38074 ft 448 kts 318°
2026-05-03 22:38 35.05648 25.82240 38068 ft 448 kts 318°
2026-05-03 22:39 35.10561 25.77534 38059 ft 449 kts 319°
2026-05-03 22:39 35.15433 25.72840 38069 ft 449 kts 319°
2026-05-03 22:40 35.20321 25.68113 38067 ft 448 kts 319°
2026-05-03 22:40 35.25215 25.63392 38068 ft 447 kts 319°
2026-05-03 22:41 35.30103 25.58690 38091 ft 446 kts 319°
2026-05-03 22:41 35.34961 25.54005 38084 ft 445 kts 319°
2026-05-03 22:42 35.39790 25.49337 38055 ft 445 kts 320°
2026-05-03 22:42 35.44647 25.44635 38058 ft 445 kts 319°
2026-05-03 22:43 35.49512 25.39919 38063 ft 445 kts 319°
2026-05-03 22:43 35.54377 25.35194 38077 ft 446 kts 319°
2026-05-03 22:44 35.59248 25.30457 38094 ft 447 kts 320°
2026-05-03 22:44 35.64126 25.25705 38099 ft 447 kts 320°
2026-05-03 22:45 35.68968 25.20980 38100 ft 447 kts 319°
2026-05-03 22:45 35.73841 25.16218 38096 ft 447 kts 319°
2026-05-03 22:46 35.78716 25.11446 38106 ft 447 kts 319°
2026-05-03 22:46 35.83582 25.06676 38104 ft 447 kts 319°
2026-05-03 22:47 35.88442 25.01902 38099 ft 446 kts 319°
2026-05-03 22:47 35.93289 24.97135 38115 ft 445 kts 319°
2026-05-03 22:48 35.98130 24.92364 38113 ft 445 kts 320°
2026-05-03 22:48 36.02972 24.87587 38108 ft 445 kts 320°
2026-05-03 22:49 36.07807 24.82809 38102 ft 444 kts 320°
2026-05-03 22:49 36.12595 24.78065 38100 ft 444 kts 320°
2026-05-03 22:50 36.17415 24.73282 38106 ft 443 kts 320°
2026-05-03 22:50 36.22183 24.68544 38105 ft 443 kts 320°
2026-05-03 22:51 36.26995 24.63753 38104 ft 444 kts 320°
2026-05-03 22:51 36.31808 24.58955 38105 ft 444 kts 320°
2026-05-03 22:52 36.36625 24.54144 38109 ft 444 kts 320°
2026-05-03 22:52 36.41439 24.49329 38114 ft 444 kts 320°
2026-05-03 22:53 36.46215 24.44544 38126 ft 444 kts 320°
2026-05-03 22:53 36.50978 24.39763 38127 ft 444 kts 320°
2026-05-03 22:54 36.55779 24.34937 38135 ft 444 kts 320°
2026-05-03 22:54 36.60583 24.30101 38135 ft 444 kts 320°
2026-05-03 22:55 36.65378 24.25265 38134 ft 443 kts 320°
2026-05-03 22:55 36.70171 24.20423 38132 ft 443 kts 320°
2026-05-03 22:56 36.74951 24.15585 38133 ft 442 kts 320°
2026-05-03 22:56 36.79702 24.10771 38129 ft 442 kts 320°
2026-05-03 22:57 36.84477 24.05922 38114 ft 443 kts 320°
2026-05-03 22:57 36.89253 24.01065 38134 ft 442 kts 320°
2026-05-03 22:58 36.94023 23.96208 38138 ft 442 kts 320°
2026-05-03 22:58 36.98769 23.91372 38141 ft 442 kts 320°
2026-05-03 22:59 37.03537 23.86506 38144 ft 442 kts 320°
2026-05-03 22:59 37.08295 23.81643 38142 ft 441 kts 320°
2026-05-03 23:00 37.13053 23.76769 38119 ft 443 kts 320°
2026-05-03 23:00 37.17823 23.71875 38144 ft 442 kts 320°
2026-05-03 23:01 37.22584 23.66983 38150 ft 443 kts 320°
2026-05-03 23:01 37.27361 23.62066 38157 ft 444 kts 320°
2026-05-03 23:02 37.32102 23.57178 38159 ft 444 kts 320°
2026-05-03 23:02 37.36833 23.52291 38164 ft 444 kts 320°
2026-05-03 23:03 37.41609 23.47350 38129 ft 445 kts 320°
2026-05-03 23:03 37.46369 23.42416 38114 ft 446 kts 320°
2026-05-03 23:04 37.50378 23.38255 38154 ft 447 kts 320°
2026-05-03 23:04 37.55150 23.33295 38162 ft 448 kts 320°
2026-05-03 23:05 37.59958 23.28288 38170 ft 448 kts 320°
2026-05-03 23:05 37.64767 23.23271 38176 ft 448 kts 320°
2026-05-03 23:06 37.69574 23.18248 38145 ft 449 kts 320°
2026-05-03 23:06 37.74367 23.13230 38162 ft 450 kts 320°
2026-05-03 23:07 37.79180 23.08182 38215 ft 448 kts 320°
2026-05-03 23:07 37.83971 23.03150 38196 ft 447 kts 320°
2026-05-03 23:08 37.88747 22.98124 38193 ft 446 kts 320°
2026-05-03 23:08 37.93507 22.93107 38187 ft 445 kts 320°
2026-05-03 23:09 37.98274 22.88090 38163 ft 444 kts 321°
2026-05-03 23:09 38.03033 22.83087 38159 ft 444 kts 321°
2026-05-03 23:10 38.07763 22.78106 38129 ft 444 kts 321°
2026-05-03 23:10 38.12496 22.73111 38165 ft 445 kts 321°
2026-05-03 23:11 38.17260 22.68073 38174 ft 445 kts 321°
2026-05-03 23:11 38.22023 22.63026 38185 ft 446 kts 321°
2026-05-03 23:12 38.26774 22.57982 38190 ft 447 kts 321°
2026-05-03 23:12 38.31549 22.52906 38195 ft 447 kts 321°
2026-05-03 23:13 38.36251 22.47898 38200 ft 447 kts 321°
2026-05-03 23:13 38.41016 22.42813 38206 ft 446 kts 321°
2026-05-03 23:14 38.45769 22.37732 38198 ft 446 kts 321°
2026-05-03 23:14 38.50488 22.32677 38187 ft 445 kts 321°
2026-05-03 23:15 38.55226 22.27595 38195 ft 444 kts 321°
2026-05-03 23:15 38.59955 22.22513 38193 ft 444 kts 321°
2026-05-03 23:16 38.64687 22.17419 38203 ft 444 kts 321°
2026-05-03 23:16 38.69403 22.12332 38181 ft 443 kts 321°
2026-05-03 23:17 38.74122 22.07233 38243 ft 442 kts 321°
2026-05-03 23:17 38.78754 22.02219 38205 ft 443 kts 321°
2026-05-03 23:18 38.83430 21.97149 38213 ft 443 kts 321°
2026-05-03 23:18 38.88132 21.92041 38214 ft 442 kts 321°
2026-05-03 23:19 38.92833 21.86926 38208 ft 442 kts 321°
2026-05-03 23:19 38.97533 21.81802 38208 ft 443 kts 321°
2026-05-03 23:20 39.02234 21.76669 38233 ft 443 kts 321°
2026-05-03 23:20 39.06893 21.71570 38200 ft 443 kts 321°
2026-05-03 23:21 39.11587 21.66423 38194 ft 442 kts 321°
2026-05-03 23:21 39.16271 21.61281 38198 ft 442 kts 321°
2026-05-03 23:22 39.23248 21.53596 38200 ft 441 kts 321°
2026-05-03 23:22 39.27927 21.48439 38208 ft 442 kts 321°
2026-05-03 23:23 39.32600 21.43279 38212 ft 443 kts 321°
2026-05-03 23:23 39.37239 21.38143 38206 ft 443 kts 321°
2026-05-03 23:24 39.41921 21.32951 38207 ft 443 kts 321°
2026-05-03 23:24 39.46572 21.27782 38203 ft 444 kts 321°
2026-05-03 23:25 39.51250 21.22573 38191 ft 443 kts 321°
2026-05-03 23:25 39.55925 21.17359 38190 ft 443 kts 321°
2026-05-03 23:26 39.60588 21.12150 38190 ft 442 kts 321°
2026-05-03 23:26 39.65251 21.06932 38175 ft 442 kts 321°
2026-05-03 23:27 39.69924 21.01692 38190 ft 443 kts 321°
2026-05-03 23:27 39.74589 20.96451 38182 ft 443 kts 321°
2026-05-03 23:28 39.79254 20.91200 38190 ft 443 kts 321°
2026-05-03 23:28 39.83879 20.85984 38181 ft 443 kts 321°
2026-05-03 23:29 39.88532 20.80728 38177 ft 443 kts 321°
2026-05-03 23:29 39.93183 20.75464 38168 ft 442 kts 321°
2026-05-03 23:30 39.97834 20.70188 38165 ft 443 kts 321°
2026-05-03 23:30 40.02481 20.64912 38158 ft 443 kts 321°
2026-05-03 23:31 40.07131 20.59624 38154 ft 443 kts 321°
2026-05-03 23:31 40.11914 20.54554 38162 ft 442 kts 324°
2026-05-03 23:32 40.16761 20.49677 38162 ft 443 kts 324°
2026-05-03 23:32 40.21619 20.44715 38170 ft 442 kts 323°
2026-05-03 23:33 40.26450 20.39737 38171 ft 442 kts 323°
2026-05-03 23:33 40.31277 20.34749 38171 ft 441 kts 323°
2026-05-03 23:34 40.36024 20.29835 38156 ft 441 kts 323°
2026-05-03 23:34 40.40841 20.24840 38153 ft 442 kts 323°
2026-05-03 23:35 40.45628 20.19867 38144 ft 442 kts 323°
2026-05-03 23:35 40.50449 20.14849 38144 ft 442 kts 323°
2026-05-03 23:36 40.55258 20.09834 38131 ft 441 kts 323°
2026-05-03 23:36 40.60057 20.04820 38118 ft 441 kts 323°
2026-05-03 23:37 40.64852 19.99801 38120 ft 441 kts 323°
2026-05-03 23:37 40.69646 19.94773 38128 ft 441 kts 323°
2026-05-03 23:38 40.74408 19.89769 38122 ft 441 kts 323°
2026-05-03 23:38 40.79207 19.84718 38119 ft 441 kts 323°
2026-05-03 23:39 40.84001 19.79661 38079 ft 440 kts 323°
2026-05-03 23:39 40.88777 19.74614 38125 ft 439 kts 323°
2026-05-03 23:40 40.93555 19.69556 38119 ft 439 kts 323°
2026-05-03 23:40 40.98322 19.64499 38121 ft 439 kts 323°
2026-05-03 23:41 41.03057 19.59466 38120 ft 439 kts 323°
2026-05-03 23:41 41.07816 19.54399 38116 ft 439 kts 323°
2026-05-03 23:42 41.12571 19.49326 38115 ft 439 kts 323°
2026-05-03 23:42 41.17323 19.44247 38114 ft 438 kts 323°
2026-05-03 23:43 41.22069 19.39164 38128 ft 438 kts 323°
2026-05-03 23:43 41.26757 19.34133 38130 ft 438 kts 323°
2026-05-03 23:44 41.31502 19.29032 38126 ft 438 kts 323°
2026-05-03 23:44 41.36212 19.23959 38128 ft 438 kts 323°
2026-05-03 23:45 41.40915 19.18882 38124 ft 438 kts 323°
2026-05-03 23:45 41.45657 19.13756 38126 ft 438 kts 323°
2026-05-03 23:46 41.50387 19.08631 38138 ft 438 kts 323°
2026-05-03 23:46 41.55112 19.03502 38141 ft 438 kts 323°
2026-05-03 23:47 41.59838 18.98362 38139 ft 437 kts 323°
2026-05-03 23:47 41.64551 18.93226 38148 ft 437 kts 323°
2026-05-03 23:48 41.69268 18.88075 38129 ft 437 kts 323°
2026-05-03 23:48 41.73950 18.82954 38129 ft 437 kts 323°
2026-05-03 23:49 41.78654 18.77797 38105 ft 437 kts 323°
2026-05-03 23:49 41.83352 18.72637 38147 ft 436 kts 323°
2026-05-03 23:50 41.87251 18.68348 38146 ft 436 kts 323°
2026-05-03 23:50 41.92702 18.62339 38132 ft 436 kts 323°
2026-05-03 23:51 41.97392 18.57159 38131 ft 436 kts 323°
2026-05-03 23:51 42.01987 18.51797 38129 ft 438 kts 318°
2026-05-03 23:52 42.06131 18.45830 38127 ft 439 kts 316°
2026-05-03 23:52 42.10306 18.39821 38114 ft 439 kts 316°
2026-05-03 23:53 42.14478 18.33792 38125 ft 440 kts 316°
2026-05-03 23:53 42.18647 18.27735 38122 ft 441 kts 316°
2026-05-03 23:54 42.22122 18.22674 38125 ft 442 kts 316°
2026-05-03 23:54 42.26297 18.16579 38135 ft 442 kts 316°
2026-05-03 23:55 42.30477 18.10464 38134 ft 443 kts 316°
2026-05-03 23:55 42.34654 18.04343 38132 ft 442 kts 316°
2026-05-03 23:56 42.38780 17.98282 38135 ft 442 kts 315°
2026-05-03 23:56 42.42921 17.92188 38119 ft 442 kts 315°
2026-05-03 23:57 42.47082 17.86050 38116 ft 442 kts 315°
2026-05-03 23:57 42.51244 17.79899 38124 ft 442 kts 315°
2026-05-03 23:58 42.55398 17.73746 38082 ft 442 kts 315°
2026-05-03 23:58 42.59556 17.67574 38099 ft 444 kts 315°
2026-05-03 23:59 42.63724 17.61374 38099 ft 445 kts 315°
2026-05-03 23:59 42.67867 17.55199 38097 ft 447 kts 315°
2026-05-04 00:00 42.72054 17.48944 38126 ft 448 kts 315°
2026-05-04 00:00 42.76251 17.42660 38124 ft 448 kts 315°
2026-05-04 00:01 42.80442 17.36373 38112 ft 449 kts 314°
2026-05-04 00:01 42.84643 17.30055 38115 ft 450 kts 314°
2026-05-04 00:02 42.88852 17.23711 38121 ft 451 kts 314°
2026-05-04 00:02 42.93060 17.17356 38113 ft 452 kts 314°
2026-05-04 00:03 42.97248 17.11017 38116 ft 452 kts 314°
2026-05-04 00:03 43.01458 17.04630 38100 ft 452 kts 314°
2026-05-04 00:04 43.05665 16.98234 38115 ft 452 kts 314°
2026-05-04 00:04 43.09868 16.91829 38115 ft 452 kts 314°
2026-05-04 00:05 43.14072 16.85410 38116 ft 452 kts 314°
2026-05-04 00:05 43.18273 16.78980 38114 ft 453 kts 314°
2026-05-04 00:06 43.22470 16.72543 38105 ft 453 kts 314°
2026-05-04 00:06 43.26662 16.66097 38113 ft 452 kts 313°
2026-05-04 00:07 43.30815 16.59697 38111 ft 452 kts 313°
2026-05-04 00:07 43.34992 16.53248 38116 ft 451 kts 313°
2026-05-04 00:08 43.39165 16.46788 38108 ft 451 kts 313°
2026-05-04 00:08 43.43332 16.40325 38097 ft 451 kts 313°
2026-05-04 00:09 43.47494 16.33858 38078 ft 451 kts 313°
2026-05-04 00:09 43.51626 16.27434 38099 ft 451 kts 313°
2026-05-04 00:10 43.55806 16.20961 38102 ft 451 kts 313°
2026-05-04 00:10 43.59977 16.14490 38103 ft 451 kts 313°
2026-05-04 00:11 43.64147 16.08005 38114 ft 452 kts 313°
2026-05-04 00:11 43.68297 16.01538 38109 ft 452 kts 313°
2026-05-04 00:12 43.72462 15.95029 38110 ft 452 kts 313°
2026-05-04 00:12 43.76625 15.88509 38109 ft 452 kts 313°
2026-05-04 00:13 43.80794 15.81962 38110 ft 452 kts 313°
2026-05-04 00:13 43.84950 15.75424 38106 ft 452 kts 313°
2026-05-04 00:14 43.89078 15.68913 38103 ft 452 kts 313°
2026-05-04 00:14 43.93230 15.62352 38100 ft 452 kts 312°
2026-05-04 00:15 43.97376 15.55782 38104 ft 452 kts 312°
2026-05-04 00:15 44.01514 15.49212 38105 ft 452 kts 312°
2026-05-04 00:16 44.05647 15.42635 38105 ft 452 kts 312°
2026-05-04 00:16 44.09780 15.36043 38104 ft 452 kts 312°
2026-05-04 00:17 44.13782 15.29376 38106 ft 451 kts 310°
2026-05-04 00:17 44.17761 15.22615 38100 ft 452 kts 310°
2026-05-04 00:18 44.21757 15.15855 38100 ft 452 kts 310°
2026-05-04 00:18 44.25759 15.09082 38100 ft 452 kts 310°
2026-05-04 00:19 44.29755 15.02307 38096 ft 452 kts 310°
2026-05-04 00:19 44.33728 14.95555 38098 ft 453 kts 310°
2026-05-04 00:20 44.37719 14.88754 38098 ft 453 kts 310°
2026-05-04 00:20 44.41716 14.81928 38111 ft 453 kts 310°
2026-05-04 00:21 44.45708 14.75092 38102 ft 454 kts 310°
2026-05-04 00:21 44.49698 14.68246 38097 ft 454 kts 310°
2026-05-04 00:22 44.53684 14.61388 38099 ft 454 kts 310°
2026-05-04 00:22 44.57645 14.54559 38099 ft 454 kts 310°
2026-05-04 00:23 44.61623 14.47683 38097 ft 454 kts 309°
2026-05-04 00:23 44.65603 14.40786 38089 ft 454 kts 309°
2026-05-04 00:24 44.69580 14.33879 38093 ft 455 kts 309°
2026-05-04 00:24 44.73564 14.26943 38098 ft 456 kts 309°
2026-05-04 00:25 44.77508 14.20060 38101 ft 456 kts 309°
2026-05-04 00:25 44.81507 14.13063 38091 ft 456 kts 309°
2026-05-04 00:26 44.85488 14.06082 38100 ft 457 kts 309°
2026-05-04 00:26 44.89471 13.99079 38106 ft 458 kts 309°
2026-05-04 00:27 44.93454 13.92059 38101 ft 459 kts 309°
2026-05-04 00:27 44.97444 13.85010 38094 ft 459 kts 308°
2026-05-04 00:28 45.01408 13.77987 38102 ft 460 kts 308°
2026-05-04 00:28 45.05400 13.70899 38108 ft 460 kts 308°
2026-05-04 00:29 45.09386 13.63805 38109 ft 460 kts 308°
2026-05-04 00:29 45.13371 13.56693 38108 ft 460 kts 308°
2026-05-04 00:30 45.17350 13.49575 38111 ft 461 kts 308°
2026-05-04 00:30 45.21329 13.42438 38100 ft 462 kts 308°
2026-05-04 00:31 45.25287 13.35322 38102 ft 462 kts 308°
2026-05-04 00:31 45.29266 13.28154 38105 ft 462 kts 308°
2026-05-04 00:32 45.33166 13.21039 38091 ft 462 kts 306°
2026-05-04 00:32 45.37010 13.13675 38094 ft 463 kts 306°
2026-05-04 00:33 45.42781 13.02632 38103 ft 464 kts 306°
2026-05-04 00:34 45.46617 12.95299 38088 ft 464 kts 306°
2026-05-04 00:34 45.50442 12.87970 38084 ft 465 kts 306°
2026-05-04 00:35 45.54304 12.80551 38089 ft 465 kts 306°
2026-05-04 00:35 45.58168 12.73108 38094 ft 466 kts 306°
2026-05-04 00:36 45.62021 12.65667 38101 ft 466 kts 306°
2026-05-04 00:36 45.65871 12.58213 38107 ft 466 kts 305°
2026-05-04 00:37 45.69716 12.50747 38093 ft 466 kts 305°
2026-05-04 00:37 45.73536 12.43310 38091 ft 466 kts 305°
2026-05-04 00:38 45.77376 12.35817 38095 ft 466 kts 305°
2026-05-04 00:38 45.81211 12.28312 38097 ft 467 kts 305°
2026-05-04 00:39 45.85037 12.20805 38118 ft 466 kts 304°
2026-05-04 00:39 45.88861 12.13280 38114 ft 466 kts 304°
2026-05-04 00:40 45.92654 12.05798 38122 ft 466 kts 304°
2026-05-04 00:40 45.96466 11.98258 38108 ft 466 kts 304°
2026-05-04 00:41 46.00272 11.90712 38142 ft 466 kts 304°
2026-05-04 00:41 46.04072 11.83154 38139 ft 466 kts 304°
2026-05-04 00:42 46.07865 11.75592 38145 ft 466 kts 304°
2026-05-04 00:42 46.11617 11.68090 38151 ft 466 kts 304°
2026-05-04 00:43 46.15359 11.60527 38156 ft 466 kts 304°
2026-05-04 00:43 46.19116 11.52904 38174 ft 466 kts 304°
2026-05-04 00:44 46.22872 11.45272 38168 ft 466 kts 304°
2026-05-04 00:44 46.26619 11.37639 38174 ft 465 kts 304°
2026-05-04 00:45 46.29734 11.31279 38175 ft 465 kts 304°
2026-05-04 00:45 46.33466 11.23640 38240 ft 465 kts 303°
2026-05-04 00:46 46.37189 11.15998 38235 ft 464 kts 303°
2026-05-04 00:46 46.40911 11.08337 38196 ft 464 kts 303°
2026-05-04 00:47 46.44632 11.00685 38193 ft 465 kts 303°
2026-05-04 00:47 46.48345 10.93072 38185 ft 464 kts 303°
2026-05-04 00:48 46.52070 10.85408 38150 ft 465 kts 303°
2026-05-04 00:48 46.55789 10.77730 38166 ft 465 kts 303°
2026-05-04 00:49 46.59512 10.70024 38159 ft 466 kts 303°
2026-05-04 00:49 46.63231 10.62301 38161 ft 466 kts 303°
2026-05-04 00:50 46.66952 10.54556 38153 ft 467 kts 303°
2026-05-04 00:50 46.70661 10.46813 38128 ft 466 kts 303°
2026-05-04 00:51 46.74058 10.38785 38139 ft 465 kts 295°
2026-05-04 00:51 46.76638 10.30159 38128 ft 464 kts 291°
2026-05-04 00:52 46.79147 10.21497 38142 ft 463 kts 291°
2026-05-04 00:52 46.81626 10.12885 38113 ft 462 kts 290°
2026-05-04 00:53 46.84100 10.04224 38114 ft 462 kts 290°
2026-05-04 00:53 46.86565 9.95561 38110 ft 461 kts 290°
2026-05-04 00:54 46.89025 9.86883 38094 ft 462 kts 290°
2026-05-04 00:54 46.91473 9.78213 38088 ft 462 kts 290°
2026-05-04 00:55 46.93902 9.69581 38091 ft 462 kts 290°
2026-05-04 00:55 46.96342 9.60880 38083 ft 462 kts 290°
2026-05-04 00:56 46.98768 9.52198 38088 ft 462 kts 290°
2026-05-04 00:56 47.01196 9.43476 38073 ft 462 kts 289°
2026-05-04 00:57 47.03624 9.34724 38078 ft 463 kts 289°
2026-05-04 00:57 47.06021 9.26052 38081 ft 463 kts 289°
2026-05-04 00:58 47.08436 9.17280 38073 ft 464 kts 289°
2026-05-04 00:58 47.10842 9.08505 38086 ft 463 kts 289°
2026-05-04 00:59 47.13235 8.99755 38101 ft 463 kts 289°
2026-05-04 00:59 47.15636 8.90944 38088 ft 463 kts 289°
2026-05-04 01:00 47.17919 8.82172 38084 ft 461 kts 288°
2026-05-04 01:00 47.20143 8.73328 38081 ft 461 kts 288°
2026-05-04 01:01 47.22376 8.64492 38075 ft 461 kts 288°
2026-05-04 01:01 47.24612 8.55647 38075 ft 460 kts 288°
2026-05-04 01:02 47.26830 8.46843 38071 ft 461 kts 288°
2026-05-04 01:02 47.29056 8.38003 38063 ft 461 kts 288°
2026-05-04 01:03 47.31277 8.29145 38069 ft 461 kts 287°
2026-05-04 01:03 47.33484 8.20267 38063 ft 461 kts 287°
2026-05-04 01:04 47.35683 8.11390 38066 ft 461 kts 287°
2026-05-04 01:04 47.37874 8.02508 38059 ft 461 kts 287°
2026-05-04 01:05 47.40061 7.93618 38057 ft 461 kts 287°
2026-05-04 01:05 47.42239 7.84721 38050 ft 460 kts 287°
2026-05-04 01:06 47.44400 7.75860 38049 ft 461 kts 287°
2026-05-04 01:06 47.46538 7.66921 38034 ft 460 kts 284°
2026-05-04 01:07 47.48119 7.57769 38045 ft 459 kts 281°
2026-05-04 01:07 47.49660 7.48605 38060 ft 460 kts 281°
2026-05-04 01:08 47.51194 7.39425 38056 ft 460 kts 281°
2026-05-04 01:08 47.52705 7.30301 38056 ft 459 kts 281°
2026-05-04 01:09 47.54217 7.21109 38057 ft 459 kts 281°
2026-05-04 01:09 47.55720 7.11929 38051 ft 459 kts 281°
2026-05-04 01:10 47.57201 7.02825 38060 ft 458 kts 281°
2026-05-04 01:10 47.58688 6.93642 38058 ft 458 kts 281°
2026-05-04 01:11 47.60167 6.84455 38043 ft 458 kts 280°
2026-05-04 01:11 47.61634 6.75288 38045 ft 458 kts 280°
2026-05-04 01:12 47.63088 6.66155 38044 ft 458 kts 280°
2026-05-04 01:12 47.64542 6.56971 38041 ft 457 kts 279°
2026-05-04 01:13 47.65989 6.47784 38041 ft 457 kts 279°
2026-05-04 01:13 47.67428 6.38586 38041 ft 457 kts 279°
2026-05-04 01:14 47.68873 6.29417 38046 ft 458 kts 281°
2026-05-04 01:14 47.70773 6.20425 38036 ft 460 kts 284°
2026-05-04 01:15 47.72707 6.11362 38035 ft 460 kts 283°
2026-05-04 01:15 47.74629 6.02276 38035 ft 460 kts 283°
2026-05-04 01:16 47.76540 5.93193 38030 ft 461 kts 283°
2026-05-04 01:16 47.78450 5.84078 38024 ft 462 kts 283°
2026-05-04 01:17 47.80342 5.75005 38025 ft 462 kts 283°
2026-05-04 01:17 47.82250 5.65819 38021 ft 462 kts 283°
2026-05-04 01:18 47.84140 5.56676 38024 ft 462 kts 283°
2026-05-04 01:18 47.86010 5.47590 38028 ft 462 kts 282°
2026-05-04 01:19 47.87885 5.38431 38005 ft 464 kts 282°
2026-05-04 01:19 47.89995 5.29316 38007 ft 469 kts 290°
2026-05-04 01:20 47.93322 5.20860 38006 ft 478 kts 302°
2026-05-04 01:20 47.97705 5.13327 38010 ft 482 kts 307°
2026-05-04 01:21 48.02212 5.05878 38002 ft 483 kts 307°
2026-05-04 01:21 48.06708 4.98421 37990 ft 483 kts 307°
2026-05-04 01:22 48.11183 4.90989 37992 ft 483 kts 307°
2026-05-04 01:22 48.15673 4.83514 37987 ft 484 kts 307°
2026-05-04 01:23 48.20177 4.75996 37989 ft 484 kts 307°
2026-05-04 01:23 48.24673 4.68468 37959 ft 485 kts 307°
2026-05-04 01:24 48.29180 4.60902 37973 ft 486 kts 307°
2026-05-04 01:24 48.33685 4.53316 37973 ft 486 kts 307°
2026-05-04 01:25 48.38162 4.45755 37964 ft 487 kts 307°
2026-05-04 01:25 48.42677 4.38109 37970 ft 487 kts 307°
2026-05-04 01:26 48.47173 4.30471 37990 ft 488 kts 307°
2026-05-04 01:26 48.51654 4.22838 37961 ft 489 kts 307°
2026-05-04 01:27 48.56161 4.15138 37967 ft 489 kts 307°
2026-05-04 01:27 48.60673 4.07407 37959 ft 490 kts 307°
2026-05-04 01:28 48.65179 3.99664 37964 ft 491 kts 307°
2026-05-04 01:28 48.69686 3.91896 37968 ft 491 kts 307°
2026-05-04 01:29 48.74674 3.84776 37967 ft 498 kts 318°
2026-05-04 01:29 48.80316 3.78601 37964 ft 500 kts 320°
2026-05-04 01:30 48.85906 3.72448 37966 ft 500 kts 320°
2026-05-04 01:30 48.91543 3.66247 37964 ft 499 kts 320°
2026-05-04 01:31 48.97174 3.60051 37967 ft 500 kts 320°
2026-05-04 01:31 49.02815 3.53827 37974 ft 499 kts 320°
2026-05-04 01:32 49.08444 3.47598 37940 ft 501 kts 320°
2026-05-04 01:32 49.14056 3.41371 37940 ft 501 kts 320°
2026-05-04 01:33 49.19701 3.35090 37941 ft 502 kts 320°
2026-05-04 01:33 49.25344 3.28792 37946 ft 502 kts 320°
2026-05-04 01:34 49.31000 3.22461 37946 ft 503 kts 320°
2026-05-04 01:34 49.35704 3.17181 37956 ft 504 kts 320°
2026-05-04 01:35 49.41373 3.10803 37981 ft 504 kts 320°
2026-05-04 01:35 49.47030 3.04419 37967 ft 504 kts 320°
2026-05-04 01:36 49.52680 2.98024 37961 ft 504 kts 320°
2026-05-04 01:36 49.58290 2.91654 37958 ft 504 kts 320°
2026-05-04 01:37 49.63910 2.85255 37957 ft 503 kts 320°
2026-05-04 01:37 49.69537 2.78830 37954 ft 503 kts 320°
2026-05-04 01:38 49.75165 2.72385 37957 ft 503 kts 319°
2026-05-04 01:38 49.80805 2.65979 37957 ft 503 kts 320°
2026-05-04 01:39 49.86510 2.59691 37955 ft 503 kts 321°
2026-05-04 01:39 49.92198 2.53388 37966 ft 502 kts 320°
2026-05-04 01:40 49.97834 2.47102 37968 ft 502 kts 320°
2026-05-04 01:40 50.03502 2.40757 37971 ft 501 kts 320°
2026-05-04 01:41 50.09161 2.34404 37968 ft 501 kts 320°
2026-05-04 01:41 50.14787 2.28069 37991 ft 500 kts 321°
2026-05-04 01:42 50.20423 2.21705 37959 ft 501 kts 320°
2026-05-04 01:42 50.26062 2.15318 37955 ft 501 kts 320°
2026-05-04 01:43 50.31698 2.08916 37952 ft 500 kts 320°
2026-05-04 01:43 50.37305 2.02449 37953 ft 499 kts 317°
2026-05-04 01:44 50.42529 1.95342 37948 ft 497 kts 315°
2026-05-04 01:44 50.47731 1.88289 37951 ft 497 kts 315°
2026-05-04 01:45 50.52963 1.81155 37966 ft 497 kts 315°
2026-05-04 01:45 50.60790 1.70413 37961 ft 497 kts 315°
2026-05-04 01:46 50.66000 1.63233 37961 ft 497 kts 315°
2026-05-04 01:46 50.71186 1.56059 37954 ft 497 kts 315°
2026-05-04 01:47 50.76383 1.48844 37960 ft 497 kts 315°
2026-05-04 01:47 50.81569 1.41627 37957 ft 497 kts 315°
2026-05-04 01:48 50.86723 1.34439 37963 ft 496 kts 315°
2026-05-04 01:48 50.91900 1.27197 37968 ft 496 kts 315°
2026-05-04 01:49 50.97071 1.19939 37965 ft 495 kts 315°
2026-05-04 01:49 51.02226 1.12681 37947 ft 495 kts 315°
2026-05-04 01:50 51.07348 1.05440 37943 ft 495 kts 314°
2026-05-04 01:50 51.12273 0.97849 37942 ft 493 kts 312°
2026-05-04 01:51 51.17148 0.90161 37968 ft 493 kts 312°
2026-05-04 01:51 51.22028 0.82529 37979 ft 493 kts 313°
2026-05-04 01:52 51.26934 0.74863 37981 ft 493 kts 313°
2026-05-04 01:52 51.31822 0.67204 37984 ft 493 kts 312°
2026-05-04 01:53 51.36686 0.59555 37955 ft 493 kts 313°
2026-05-04 01:53 51.41558 0.51871 37960 ft 492 kts 312°
2026-05-04 01:54 51.46425 0.44168 37954 ft 492 kts 313°
2026-05-04 01:54 51.51298 0.36434 37943 ft 492 kts 313°
2026-05-04 01:55 51.56158 0.28695 37939 ft 492 kts 312°
2026-05-04 01:55 51.61005 0.20951 37945 ft 492 kts 312°
2026-05-04 01:56 51.65854 0.13175 37944 ft 491 kts 312°
2026-05-04 01:56 51.70629 0.05339 37945 ft 491 kts 311°
2026-05-04 01:57 51.75375 -0.02496 37965 ft 491 kts 312°
2026-05-04 01:57 51.80154 -0.10390 37954 ft 491 kts 311°
2026-05-04 01:58 51.84923 -0.18287 37964 ft 491 kts 311°
2026-05-04 01:58 51.89691 -0.26207 37954 ft 492 kts 311°
2026-05-04 01:59 51.94460 -0.34153 37953 ft 492 kts 311°
2026-05-04 01:59 51.99222 -0.42116 37950 ft 492 kts 311°
2026-05-04 02:00 52.03984 -0.50103 37953 ft 492 kts 311°
2026-05-04 02:00 52.08578 -0.57835 37953 ft 491 kts 311°
2026-05-04 02:01 52.13279 -0.65768 37513 ft 481 kts 311°
2026-05-04 02:01 52.15589 -0.69677 36856 ft 479 kts 311°
2026-05-04 02:01 52.17903 -0.73602 36126 ft 479 kts 311°
2026-05-04 02:02 52.20213 -0.77524 35372 ft 480 kts 311°
2026-05-04 02:02 52.22517 -0.81441 34622 ft 480 kts 312°
2026-05-04 02:02 52.25013 -0.85107 33879 ft 482 kts 320°
2026-05-04 02:02 52.27761 -0.88221 33214 ft 481 kts 326°
2026-05-04 02:03 52.30613 -0.91005 32700 ft 474 kts 326°
2026-05-04 02:03 52.33382 -0.93766 32066 ft 470 kts 326°
2026-05-04 02:03 52.36158 -0.96554 31451 ft 466 kts 326°
2026-05-04 02:03 52.38903 -0.99312 30873 ft 462 kts 326°
2026-05-04 02:04 52.41627 -1.02045 30335 ft 456 kts 326°
2026-05-04 02:04 52.44326 -1.04751 29706 ft 453 kts 326°
2026-05-04 02:04 52.46963 -1.07397 29074 ft 448 kts 326°
2026-05-04 02:04 52.49616 -1.10062 28449 ft 443 kts 326°
2026-05-04 02:05 52.52240 -1.12701 27824 ft 439 kts 327°
2026-05-04 02:05 52.54823 -1.15303 27265 ft 433 kts 327°
2026-05-04 02:05 52.57376 -1.17877 26663 ft 430 kts 327°
2026-05-04 02:05 52.59918 -1.20443 26049 ft 426 kts 327°
2026-05-04 02:06 52.62386 -1.22937 25476 ft 422 kts 327°
2026-05-04 02:06 52.64881 -1.25476 24898 ft 418 kts 326°
2026-05-04 02:06 52.67355 -1.28026 24298 ft 427 kts 326°
2026-05-04 02:06 52.69912 -1.30679 23731 ft 455 kts 326°
2026-05-04 02:07 52.72622 -1.33486 23104 ft 461 kts 327°
2026-05-04 02:07 52.75346 -1.36219 22494 ft 457 kts 327°
2026-05-04 02:07 52.78043 -1.38911 21843 ft 450 kts 328°
2026-05-04 02:07 52.80697 -1.41582 21224 ft 444 kts 327°
2026-05-04 02:08 52.83303 -1.44228 20612 ft 434 kts 327°
2026-05-04 02:08 52.85851 -1.46832 20000 ft 427 kts 327°
2026-05-04 02:08 52.88363 -1.49408 19406 ft 424 kts 327°
2026-05-04 02:08 52.90852 -1.51967 18835 ft 422 kts 327°
2026-05-04 02:09 52.93346 -1.54535 18254 ft 418 kts 327°
2026-05-04 02:09 52.95792 -1.57055 17612 ft 415 kts 327°
2026-05-04 02:09 52.98226 -1.59567 16973 ft 410 kts 327°
2026-05-04 02:09 53.00635 -1.62055 16355 ft 405 kts 327°
2026-05-04 02:10 53.02980 -1.64564 15731 ft 399 kts 321°
2026-05-04 02:10 53.04923 -1.67774 15129 ft 393 kts 306°
2026-05-04 02:10 53.06232 -1.71715 14569 ft 387 kts 290°
2026-05-04 02:10 53.06963 -1.76002 13982 ft 384 kts 284°
2026-05-04 02:11 53.07661 -1.80292 13357 ft 384 kts 285°
2026-05-04 02:11 53.08370 -1.84479 12735 ft 377 kts 285°
2026-05-04 02:11 53.09087 -1.88639 12107 ft 370 kts 285°
2026-05-04 02:11 53.09795 -1.92709 11500 ft 362 kts 285°
2026-05-04 02:12 53.10482 -1.96693 10892 ft 356 kts 285°
2026-05-04 02:12 53.11160 -2.00608 10224 ft 347 kts 285°
2026-05-04 02:12 53.11816 -2.04393 9629 ft 335 kts 285°
2026-05-04 02:12 53.12437 -2.08075 8986 ft 325 kts 285°
2026-05-04 02:13 53.13031 -2.11646 8362 ft 316 kts 285°
2026-05-04 02:13 53.13607 -2.15128 7756 ft 308 kts 285°
2026-05-04 02:13 53.14156 -2.18467 7161 ft 302 kts 285°
2026-05-04 02:13 53.14698 -2.21802 6577 ft 296 kts 285°
2026-05-04 02:14 53.15221 -2.25053 6109 ft 286 kts 285°
2026-05-04 02:14 53.15715 -2.28162 5717 ft 274 kts 285°
2026-05-04 02:14 53.16188 -2.31171 5368 ft 263 kts 285°
2026-05-04 02:14 53.16636 -2.34059 5107 ft 249 kts 285°
2026-05-04 02:15 53.17045 -2.36745 4874 ft 231 kts 283°
2026-05-04 02:15 53.17017 -2.39342 4594 ft 226 kts 251°
2026-05-04 02:15 53.16317 -2.41592 4373 ft 218 kts 240°
2026-05-04 02:15 53.15540 -2.43730 4147 ft 210 kts 239°
2026-05-04 02:16 53.15056 -2.45839 3894 ft 187 kts 269°
2026-05-04 02:16 53.15418 -2.47778 3645 ft 179 kts 309°
2026-05-04 02:16 53.16390 -2.49141 3512 ft 185 kts 323°
2026-05-04 02:16 53.17423 -2.50451 3501 ft 188 kts 323°
2026-05-04 02:17 53.18483 -2.51692 3403 ft 185 kts 335°
2026-05-04 02:17 53.19737 -2.52019 3083 ft 183 kts
2026-05-04 02:17 53.21001 -2.52043 2998 ft 180 kts
2026-05-04 02:17 53.22207 -2.51611 3005 ft 178 kts 27°
2026-05-04 02:18 53.23290 -2.50600 2995 ft 173 kts 35°
2026-05-04 02:18 53.24154 -2.49395 2994 ft 152 kts 46°
2026-05-04 02:18 53.24855 -2.48112 2830 ft 147 kts 51°
2026-05-04 02:18 53.25485 -2.46832 2631 ft 143 kts 52°
2026-05-04 02:19 53.26103 -2.45572 2447 ft 138 kts 52°
2026-05-04 02:19 53.26696 -2.44362 2262 ft 135 kts 52°
2026-05-04 02:19 53.27288 -2.43147 2091 ft 135 kts 52°
2026-05-04 02:19 53.27873 -2.41954 1893 ft 132 kts 52°
2026-05-04 02:20 53.28452 -2.40765 1722 ft 133 kts 52°
2026-05-04 02:20 53.29037 -2.39569 1529 ft 133 kts 52°
2026-05-04 02:20 53.29620 -2.38375 1343 ft 132 kts 52°
2026-05-04 02:20 53.30206 -2.37175 1159 ft 133 kts 51°
2026-05-04 02:21 53.30789 -2.35976 967 ft 134 kts 51°
2026-05-04 02:21 53.31384 -2.34759 788 ft 135 kts 52°
2026-05-04 02:21 53.31973 -2.33552 634 ft 132 kts 50°
2026-05-04 02:21 53.32550 -2.32377 467 ft 131 kts 51°
2026-05-04 02:22 53.33134 -2.31184 308 ft 133 kts 51°
2026-05-04 02:22 53.33704 -2.30025 240 ft 117 kts 54°
2026-05-04 02:22 53.34106 -2.29187 240 ft 77 kts 51°
2026-05-04 02:22 53.34390 -2.28598 232 ft 54 kts 51°
2026-05-04 02:23 53.34561 -2.28290 237 ft 27 kts 35°
2026-05-04 02:23 53.34719 -2.28157 240 ft 24 kts 20°
2026-05-04 02:23 53.34872 -2.28047 238 ft 24 kts 41°
2026-05-04 02:23 53.34979 -2.27849 236 ft 23 kts 51°
2026-05-04 02:24 53.35075 -2.27647 238 ft 21 kts 51°
2026-05-04 02:24 53.35166 -2.27459 240 ft 20 kts 50°
2026-05-04 02:24 53.35252 -2.27283 244 ft 19 kts 51°
2026-05-04 02:24 53.35313 -2.27195 247 ft 16 kts 13°
2026-05-04 02:25 53.35406 -2.27233 251 ft 15 kts 321°
2026-05-04 02:25 53.35491 -2.27345 254 ft 16 kts 321°
2026-05-04 02:25 53.35593 -2.27481 250 ft 21 kts 321°
2026-05-04 02:25 53.35642 -2.27602 250 ft 12 kts 244°
2026-05-04 02:26 53.35611 -2.27682 248 ft 0 kts 230°